Time,TemperatureF,DewpointF,PressureIn,WindDirection,WindDirectionDegrees,WindSpeedMPH,WindSpeedGustMPH,Humidity,HourlyPrecipIn,Conditions,Clouds,dailyrainin,SoftwareType,DateUTC
2013-10-07 00:01:00,59.8,53.6,29.99,NNW,335,0.0,0.0,80,0.00,,,0.00,WeatherCatV1.02B3,2013-10-07 05:01:00,
2013-10-07 00:06:00,60.0,53.8,29.99,NNW,335,0.0,0.0,80,0.00,,,0.00,WeatherCatV1.02B3,2013-10-07 05:06:00,
2013-10-07 00:11:00,60.2,53.7,30.00,WNW,296,0.0,1.0,79,0.00,,,0.00,WeatherCatV1.02B3,2013-10-07 05:11:00,
2013-10-07 00:16:00,60.4,53.9,30.00,WNW,296,0.0,0.0,79,0.00,,,0.00,WeatherCatV1.02B3,2013-10-07 05:16:00,
2013-10-07 00:21:00,60.4,53.5,30.00,WNW,295,0.0,0.0,78,0.00,,,0.00,WeatherCatV1.02B3,2013-10-07 05:21:00,
2013-10-07 00:26:00,60.5,53.6,30.00,WNW,295,0.0,0.0,78,0.00,,,0.00,WeatherCatV1.02B3,2013-10-07 05:26:00,
2013-10-07 00:31:00,60.7,53.8,30.00,WNW,283,0.0,2.0,78,0.00,,,0.00,WeatherCatV1.02B3,2013-10-07 05:31:00,
2013-10-07 00:36:00,60.9,53.6,30.00,NW,321,0.0,1.0,77,0.00,,,0.00,WeatherCatV1.02B3,2013-10-07 05:36:00,
2013-10-07 00:41:00,61.3,53.7,30.00,WNW,296,0.0,1.0,76,0.00,,,0.00,WeatherCatV1.02B3,2013-10-07 05:41:00,
2013-10-07 00:46:00,61.8,53.4,30.00,NNW,327,0.0,6.0,74,0.00,,,0.00,WeatherCatV1.02B3,2013-10-07 05:46:00,
2013-10-07 00:51:00,62.2,53.8,30.00,NNW,331,0.0,0.0,74,0.00,,,0.00,WeatherCatV1.02B3,2013-10-07 05:51:00,
2013-10-07 00:56:00,62.3,53.5,30.00,NW,305,0.0,7.0,73,0.00,,,0.00,WeatherCatV1.02B3,2013-10-07 05:56:00,
2013-10-07 01:01:00,62.5,53.7,29.99,NW,316,0.0,0.0,73,0.00,,,0.00,WeatherCatV1.02B3,2013-10-07 06:01:00,
2013-10-07 01:06:00,62.6,53.4,29.99,NW,317,0.0,5.0,72,0.00,,,0.00,WeatherCatV1.02B3,2013-10-07 06:06:00,
2013-10-07 01:11:00,62.6,53.8,29.99,NNW,333,1.0,4.0,73,0.00,,,0.00,WeatherCatV1.02B3,2013-10-07 06:11:00,
2013-10-07 01:16:00,62.5,53.7,30.00,North,351,4.0,4.0,73,0.00,,,0.00,WeatherCatV1.02B3,2013-10-07 06:16:00,
2013-10-07 01:21:00,62.4,53.6,30.00,NNE,19,0.0,4.0,73,0.00,,,0.00,WeatherCatV1.02B3,2013-10-07 06:21:00,
2013-10-07 01:26:00,62.4,53.6,30.00,NW,323,0.0,2.0,73,0.00,,,0.00,WeatherCatV1.02B3,2013-10-07 06:26:00,
2013-10-07 01:31:00,62.3,53.5,30.00,NW,316,0.0,1.0,73,0.00,,,0.00,WeatherCatV1.02B3,2013-10-07 06:31:00,
2013-10-07 01:36:00,62.2,53.8,30.00,NW,309,0.0,2.0,74,0.00,,,0.00,WeatherCatV1.02B3,2013-10-07 06:36:00,
2013-10-07 01:41:00,62.1,53.7,30.00,NW,317,0.0,8.0,74,0.00,,,0.00,WeatherCatV1.02B3,2013-10-07 06:41:00,
2013-10-07 01:46:00,62.0,53.6,30.00,NNW,331,0.0,5.0,74,0.00,,,0.00,WeatherCatV1.02B3,2013-10-07 06:46:00,
2013-10-07 01:51:00,61.9,53.1,30.00,WNW,303,1.0,4.0,73,0.00,,,0.00,WeatherCatV1.02B3,2013-10-07 06:51:00,
2013-10-07 01:56:00,62.0,53.6,30.00,WNW,292,2.0,5.0,74,0.00,,,0.00,WeatherCatV1.02B3,2013-10-07 06:56:00,
2013-10-07 02:01:00,61.9,53.5,30.00,NW,321,0.0,4.0,74,0.00,,,0.00,WeatherCatV1.02B3,2013-10-07 07:01:00,
2013-10-07 02:06:00,61.8,53.4,30.00,WNW,300,0.0,5.0,74,0.00,,,0.00,WeatherCatV1.02B3,2013-10-07 07:06:00,
2013-10-07 02:11:00,61.7,54.1,29.99,SW,217,3.0,4.0,76,0.00,,,0.00,WeatherCatV1.02B3,2013-10-07 07:11:00,
2013-10-07 02:16:00,61.6,53.6,30.00,West,278,0.0,2.0,75,0.00,,,0.00,WeatherCatV1.02B3,2013-10-07 07:16:00,
2013-10-07 02:21:00,61.5,53.5,30.00,NNE,22,5.0,10.0,75,0.00,,,0.00,WeatherCatV1.02B3,2013-10-07 07:21:00,
2013-10-07 02:26:00,61.5,53.5,30.00,West,272,1.0,1.0,75,0.00,,,0.00,WeatherCatV1.02B3,2013-10-07 07:26:00,
2013-10-07 02:31:00,61.4,53.8,30.00,NW,326,0.0,3.0,76,0.00,,,0.00,WeatherCatV1.02B3,2013-10-07 07:31:00,
2013-10-07 02:36:00,61.3,53.7,30.00,NW,317,2.0,4.0,76,0.00,,,0.00,WeatherCatV1.02B3,2013-10-07 07:36:00,
2013-10-07 02:41:00,61.2,53.6,30.00,North,0,0.0,7.0,76,0.00,,,0.00,WeatherCatV1.02B3,2013-10-07 07:41:00,
2013-10-07 02:46:00,61.1,53.5,30.00,WNW,300,0.0,9.0,76,0.00,,,0.00,WeatherCatV1.02B3,2013-10-07 07:46:00,
2013-10-07 02:51:00,61.0,53.7,30.00,NNW,331,0.0,3.0,77,0.00,,,0.00,WeatherCatV1.02B3,2013-10-07 07:51:00,
2013-10-07 02:56:00,60.9,53.3,30.00,North,0,4.0,4.0,76,0.00,,,0.00,WeatherCatV1.02B3,2013-10-07 07:56:00,
2013-10-07 03:01:00,60.9,53.3,30.00,North,9,0.0,5.0,76,0.00,,,0.00,WeatherCatV1.02B3,2013-10-07 08:01:00,
2013-10-07 03:06:00,60.8,53.2,30.00,NW,326,1.0,7.0,76,0.00,,,0.00,WeatherCatV1.02B3,2013-10-07 08:06:00,
2013-10-07 03:11:00,60.7,53.4,30.00,NNW,347,0.0,3.0,77,0.00,,,0.00,WeatherCatV1.02B3,2013-10-07 08:11:00,
2013-10-07 03:16:00,60.5,53.2,30.00,NW,313,0.0,3.0,77,0.00,,,0.00,WeatherCatV1.02B3,2013-10-07 08:16:00,
2013-10-07 03:21:00,60.4,53.2,30.00,North,0,0.0,6.0,77,0.00,,,0.00,WeatherCatV1.02B3,2013-10-07 08:21:00,
2013-10-07 03:26:00,60.3,53.1,30.00,NNE,13,3.0,4.0,77,0.00,,,0.00,WeatherCatV1.02B3,2013-10-07 08:26:00,
2013-10-07 03:31:00,60.2,53.3,30.00,NE,36,3.0,3.0,78,0.00,,,0.00,WeatherCatV1.02B3,2013-10-07 08:31:00,
2013-10-07 03:36:00,60.0,52.8,30.00,NNW,330,3.0,5.0,77,0.00,,,0.00,WeatherCatV1.02B3,2013-10-07 08:36:00,
2013-10-07 03:41:00,59.9,53.0,30.00,NE,44,5.0,6.0,78,0.00,,,0.00,WeatherCatV1.02B3,2013-10-07 08:41:00,
2013-10-07 03:46:00,59.8,52.6,30.01,NNW,346,0.0,2.0,77,0.00,,,0.00,WeatherCatV1.02B3,2013-10-07 08:46:00,
2013-10-07 03:51:00,59.8,52.9,30.01,NNE,12,1.0,5.0,78,0.00,,,0.00,WeatherCatV1.02B3,2013-10-07 08:51:00,
2013-10-07 03:56:00,59.6,52.7,30.00,WNW,291,1.0,9.0,78,0.00,,,0.00,WeatherCatV1.02B3,2013-10-07 08:56:00,
2013-10-07 04:01:00,59.5,53.0,30.01,NW,314,0.0,4.0,79,0.00,,,0.00,WeatherCatV1.02B3,2013-10-07 09:01:00,
2013-10-07 04:06:00,59.4,52.9,30.01,NW,311,0.0,3.0,79,0.00,,,0.00,WeatherCatV1.02B3,2013-10-07 09:06:00,
2013-10-07 04:11:00,59.3,52.8,30.01,NNW,348,3.0,7.0,79,0.00,,,0.00,WeatherCatV1.02B3,2013-10-07 09:11:00,
2013-10-07 04:16:00,59.2,52.7,30.01,NNE,22,0.0,1.0,79,0.00,,,0.00,WeatherCatV1.02B3,2013-10-07 09:16:00,
2013-10-07 04:21:00,59.2,52.7,30.01,NNW,337,0.0,3.0,79,0.00,,,0.00,WeatherCatV1.02B3,2013-10-07 09:21:00,
2013-10-07 04:26:00,59.1,52.6,30.01,WNW,301,0.0,0.0,79,0.00,,,0.00,WeatherCatV1.02B3,2013-10-07 09:26:00,
2013-10-07 04:31:00,59.0,52.5,30.02,NW,316,2.0,7.0,79,0.00,,,0.00,WeatherCatV1.02B3,2013-10-07 09:31:00,
2013-10-07 04:36:00,58.9,52.4,30.02,ENE,63,3.0,3.0,79,0.00,,,0.00,WeatherCatV1.02B3,2013-10-07 09:36:00,
2013-10-07 04:41:00,58.8,52.0,30.02,North,355,0.0,4.0,78,0.00,,,0.00,WeatherCatV1.02B3,2013-10-07 09:41:00,
2013-10-07 04:46:00,58.7,51.9,30.02,North,0,0.0,2.0,78,0.00,,,0.00,WeatherCatV1.02B3,2013-10-07 09:46:00,
2013-10-07 04:51:00,58.6,51.8,30.02,NNE,28,1.0,2.0,78,0.00,,,0.00,WeatherCatV1.02B3,2013-10-07 09:51:00,
2013-10-07 04:56:00,58.5,52.0,30.02,North,0,0.0,3.0,79,0.00,,,0.00,WeatherCatV1.02B3,2013-10-07 09:56:00,
2013-10-07 05:01:00,58.2,51.4,30.02,East,98,0.0,10.0,78,0.00,,,0.00,WeatherCatV1.02B3,2013-10-07 10:01:00,
2013-10-07 05:06:00,58.0,51.2,30.02,North,355,2.0,5.0,78,0.00,,,0.00,WeatherCatV1.02B3,2013-10-07 10:06:00,
2013-10-07 05:11:00,57.9,51.4,30.02,NNE,21,0.0,2.0,79,0.00,,,0.00,WeatherCatV1.02B3,2013-10-07 10:11:00,
2013-10-07 05:16:00,57.7,51.2,30.03,ENE,64,0.0,4.0,79,0.00,,,0.00,WeatherCatV1.02B3,2013-10-07 10:16:00,
2013-10-07 05:22:00,57.6,51.1,30.03,NNE,17,0.0,1.0,79,0.00,,,0.00,WeatherCatV1.02B3,2013-10-07 10:22:00,
2013-10-07 05:27:00,57.4,50.9,30.03,NE,41,2.0,2.0,79,0.00,,,0.00,WeatherCatV1.02B3,2013-10-07 10:27:00,
2013-10-07 05:32:00,57.3,50.8,30.03,NE,35,0.0,4.0,79,0.00,,,0.00,WeatherCatV1.02B3,2013-10-07 10:32:00,
2013-10-07 05:37:00,57.2,50.7,30.03,NNW,340,0.0,1.0,79,0.00,,,0.00,WeatherCatV1.02B3,2013-10-07 10:37:00,
2013-10-07 05:42:00,57.2,50.7,30.03,North,355,0.0,0.0,79,0.00,,,0.00,WeatherCatV1.02B3,2013-10-07 10:42:00,
2013-10-07 05:47:00,57.1,51.0,30.03,North,349,0.0,2.0,80,0.00,,,0.00,WeatherCatV1.02B3,2013-10-07 10:47:00,
2013-10-07 05:52:00,57.0,50.5,30.03,North,355,0.0,4.0,79,0.00,,,0.00,WeatherCatV1.02B3,2013-10-07 10:52:00,
2013-10-07 05:57:00,56.9,50.8,30.03,NE,43,0.0,3.0,80,0.00,,,0.00,WeatherCatV1.02B3,2013-10-07 10:57:00,
2013-10-07 06:02:00,56.9,50.8,30.03,NNE,24,0.0,5.0,80,0.00,,,0.00,WeatherCatV1.02B3,2013-10-07 11:02:00,
2013-10-07 06:07:00,56.8,50.7,30.03,NE,36,0.0,1.0,80,0.00,,,0.00,WeatherCatV1.02B3,2013-10-07 11:07:00,
2013-10-07 06:12:00,56.8,50.7,30.03,NE,48,0.0,0.0,80,0.00,,,0.00,WeatherCatV1.02B3,2013-10-07 11:12:00,
2013-10-07 06:17:00,56.7,50.6,30.03,North,355,1.0,1.0,80,0.00,,,0.00,WeatherCatV1.02B3,2013-10-07 11:17:00,
2013-10-07 06:22:00,56.6,50.5,30.03,North,5,0.0,1.0,80,0.00,,,0.00,WeatherCatV1.02B3,2013-10-07 11:22:00,
2013-10-07 06:27:00,56.5,50.1,30.03,NE,55,0.0,4.0,79,0.00,,,0.00,WeatherCatV1.02B3,2013-10-07 11:27:00,
2013-10-07 06:32:00,56.4,50.0,30.03,NE,47,0.0,1.0,79,0.00,,,0.00,WeatherCatV1.02B3,2013-10-07 11:32:00,
2013-10-07 06:37:00,56.4,50.3,30.03,ENE,59,0.0,4.0,80,0.00,,,0.00,WeatherCatV1.02B3,2013-10-07 11:37:00,
2013-10-07 06:42:00,56.4,50.0,30.03,NE,49,0.0,5.0,79,0.00,,,0.00,WeatherCatV1.02B3,2013-10-07 11:42:00,
2013-10-07 06:47:00,56.4,50.0,30.03,NNE,25,0.0,1.0,79,0.00,,,0.00,WeatherCatV1.02B3,2013-10-07 11:47:00,
2013-10-07 06:52:00,56.4,50.0,30.03,NNE,25,0.0,0.0,79,0.00,,,0.00,WeatherCatV1.02B3,2013-10-07 11:52:00,
2013-10-07 06:57:00,56.4,49.6,30.03,North,350,0.0,0.0,78,0.00,,,0.00,WeatherCatV1.02B3,2013-10-07 11:57:00,
2013-10-07 07:02:00,56.4,49.6,30.04,NNE,15,1.0,2.0,78,0.00,,,0.00,WeatherCatV1.02B3,2013-10-07 12:02:00,
2013-10-07 07:07:00,56.4,49.6,30.03,NNE,15,0.0,2.0,78,0.00,,,0.00,WeatherCatV1.02B3,2013-10-07 12:07:00,
2013-10-07 07:12:00,56.3,49.5,30.04,NNE,16,0.0,1.0,78,0.00,,,0.00,WeatherCatV1.02B3,2013-10-07 12:12:00,
2013-10-07 07:17:00,56.3,49.5,30.04,NNE,14,0.0,0.0,78,0.00,,,0.00,WeatherCatV1.02B3,2013-10-07 12:17:00,
2013-10-07 07:22:00,56.3,49.9,30.04,North,9,0.0,0.0,79,0.00,,,0.00,WeatherCatV1.02B3,2013-10-07 12:22:00,
2013-10-07 07:27:00,56.3,49.9,30.04,North,9,0.0,0.0,79,0.00,,,0.00,WeatherCatV1.02B3,2013-10-07 12:27:00,
2013-10-07 07:32:00,56.4,50.3,30.04,North,355,0.0,2.0,80,0.00,,,0.00,WeatherCatV1.02B3,2013-10-07 12:32:00,
2013-10-07 07:37:00,56.4,50.3,30.04,North,355,0.0,0.0,80,0.00,,,0.00,WeatherCatV1.02B3,2013-10-07 12:37:00,
2013-10-07 07:42:00,56.6,50.8,30.04,North,0,0.0,0.0,81,0.00,,,0.00,WeatherCatV1.02B3,2013-10-07 12:42:00,
2013-10-07 07:47:00,56.6,50.8,30.05,North,0,0.0,0.0,81,0.00,,,0.00,WeatherCatV1.02B3,2013-10-07 12:47:00,
2013-10-07 07:52:00,56.8,51.4,30.05,North,355,0.0,0.0,82,0.00,,,0.00,WeatherCatV1.02B3,2013-10-07 12:52:00,
2013-10-07 07:57:00,56.9,51.8,30.05,North,355,1.0,1.0,83,0.00,,,0.00,WeatherCatV1.02B3,2013-10-07 12:57:00,
2013-10-07 08:02:00,57.1,51.7,30.05,North,0,0.0,2.0,82,0.00,,,0.00,WeatherCatV1.02B3,2013-10-07 13:02:00,
2013-10-07 08:07:00,57.2,51.4,30.05,North,355,0.0,0.0,81,0.00,,,0.00,WeatherCatV1.02B3,2013-10-07 13:07:00,
2013-10-07 08:12:00,57.4,51.6,30.06,NNW,335,0.0,1.0,81,0.00,,,0.00,WeatherCatV1.02B3,2013-10-07 13:12:00,
2013-10-07 08:17:00,57.5,51.7,30.06,NNW,340,0.0,0.0,81,0.00,,,0.00,WeatherCatV1.02B3,2013-10-07 13:17:00,
2013-10-07 08:22:00,57.7,51.2,30.06,NNW,340,0.0,1.0,79,0.00,,,0.00,WeatherCatV1.02B3,2013-10-07 13:22:00,
2013-10-07 08:27:00,58.0,51.5,30.06,NNW,340,0.0,3.0,79,0.00,,,0.00,WeatherCatV1.02B3,2013-10-07 13:27:00,
2013-10-07 08:32:00,58.2,51.4,30.06,NNW,328,0.0,1.0,78,0.00,,,0.00,WeatherCatV1.02B3,2013-10-07 13:32:00,
2013-10-07 08:37:00,58.4,51.2,30.07,NW,309,0.0,4.0,77,0.00,,,0.00,WeatherCatV1.02B3,2013-10-07 13:37:00,
2013-10-07 08:42:00,58.8,51.2,30.07,NNW,348,0.0,2.0,76,0.00,,,0.00,WeatherCatV1.02B3,2013-10-07 13:42:00,
2013-10-07 08:47:00,59.1,51.5,30.07,West,263,1.0,4.0,76,0.00,,,0.00,WeatherCatV1.02B3,2013-10-07 13:47:00,
2013-10-07 08:52:00,59.3,51.4,30.07,North,355,0.0,2.0,75,0.00,,,0.00,WeatherCatV1.02B3,2013-10-07 13:52:00,
2013-10-07 08:57:00,59.4,51.8,30.07,NW,326,0.0,1.0,76,0.00,,,0.00,WeatherCatV1.02B3,2013-10-07 13:57:00,
2013-10-07 09:02:00,59.6,50.9,30.08,North,350,3.0,6.0,73,0.00,,,0.00,WeatherCatV1.02B3,2013-10-07 14:02:00,
2013-10-07 09:07:00,59.6,50.9,30.08,North,0,0.0,3.0,73,0.00,,,0.00,WeatherCatV1.02B3,2013-10-07 14:07:00,
2013-10-07 09:12:00,59.7,51.0,30.08,North,11,0.0,4.0,73,0.00,,,0.00,WeatherCatV1.02B3,2013-10-07 14:12:00,
2013-10-07 09:17:00,59.7,51.0,30.08,North,351,0.0,4.0,73,0.00,,,0.00,WeatherCatV1.02B3,2013-10-07 14:17:00,
2013-10-07 09:22:00,59.8,51.1,30.08,NNW,331,0.0,4.0,73,0.00,,,0.00,WeatherCatV1.02B3,2013-10-07 14:22:00,
2013-10-07 09:27:00,60.0,51.7,30.08,NW,318,0.0,2.0,74,0.00,,,0.00,WeatherCatV1.02B3,2013-10-07 14:27:00,
2013-10-07 09:32:00,60.2,51.5,30.08,WNW,295,0.0,4.0,73,0.00,,,0.00,WeatherCatV1.02B3,2013-10-07 14:32:00,
2013-10-07 09:37:00,60.4,51.7,30.09,NW,313,0.0,5.0,73,0.00,,,0.00,WeatherCatV1.02B3,2013-10-07 14:37:00,
2013-10-07 09:42:00,60.6,51.1,30.09,NW,306,2.0,4.0,71,0.00,,,0.00,WeatherCatV1.02B3,2013-10-07 14:42:00,
2013-10-07 09:47:00,60.7,51.2,30.09,NNW,332,1.0,2.0,71,0.00,,,0.00,WeatherCatV1.02B3,2013-10-07 14:47:00,
2013-10-07 09:52:00,60.8,51.3,30.09,NW,314,1.0,4.0,71,0.00,,,0.00,WeatherCatV1.02B3,2013-10-07 14:52:00,
2013-10-07 09:57:00,61.1,51.6,30.09,NW,312,3.0,5.0,71,0.00,,,0.00,WeatherCatV1.02B3,2013-10-07 14:57:00,
2013-10-07 10:02:00,61.2,51.7,30.09,North,355,2.0,4.0,71,0.00,,,0.00,WeatherCatV1.02B3,2013-10-07 15:02:00,
2013-10-07 10:07:00,61.5,52.0,30.09,NNW,340,0.0,3.0,71,0.00,,,0.00,WeatherCatV1.02B3,2013-10-07 15:07:00,
2013-10-07 10:12:00,61.7,51.4,30.09,WNW,303,0.0,5.0,69,0.00,,,0.00,WeatherCatV1.02B3,2013-10-07 15:12:00,
2013-10-07 10:17:00,61.9,50.8,30.09,SW,221,0.0,5.0,67,0.00,,,0.00,WeatherCatV1.02B3,2013-10-07 15:17:00,
2013-10-07 10:22:00,62.0,51.3,30.09,NNW,335,0.0,6.0,68,0.00,,,0.00,WeatherCatV1.02B3,2013-10-07 15:22:00,
2013-10-07 10:27:00,62.3,51.2,30.09,WNW,300,1.0,2.0,67,0.00,,,0.00,WeatherCatV1.02B3,2013-10-07 15:27:00,
2013-10-07 10:32:00,62.5,51.4,30.09,West,278,2.0,4.0,67,0.00,,,0.00,WeatherCatV1.02B3,2013-10-07 15:32:00,
2013-10-07 10:37:00,62.8,51.7,30.09,West,261,0.0,7.0,67,0.00,,,0.00,WeatherCatV1.02B3,2013-10-07 15:37:00,
2013-10-07 10:42:00,63.0,51.0,30.09,WNW,297,0.0,2.0,65,0.00,,,0.00,WeatherCatV1.02B3,2013-10-07 15:42:00,
2013-10-07 10:47:00,63.2,51.6,30.09,NNW,339,0.0,5.0,66,0.00,,,0.00,WeatherCatV1.02B3,2013-10-07 15:47:00,
2013-10-07 10:52:00,63.4,52.2,30.09,North,355,0.0,8.0,67,0.00,,,0.00,WeatherCatV1.02B3,2013-10-07 15:52:00,
2013-10-07 10:57:00,63.6,51.6,30.09,NW,321,0.0,1.0,65,0.00,,,0.00,WeatherCatV1.02B3,2013-10-07 15:57:00,
2013-10-07 11:02:00,63.5,51.5,30.09,NW,319,2.0,3.0,65,0.00,,,0.00,WeatherCatV1.02B3,2013-10-07 16:02:00,
2013-10-07 11:07:00,63.6,51.6,30.09,WSW,257,5.0,5.0,65,0.00,,,0.00,WeatherCatV1.02B3,2013-10-07 16:07:00,
2013-10-07 11:12:00,63.6,51.6,30.09,NW,318,2.0,6.0,65,0.00,,,0.00,WeatherCatV1.02B3,2013-10-07 16:12:00,
2013-10-07 11:17:00,63.9,51.5,30.09,NNW,331,1.0,7.0,64,0.00,,,0.00,WeatherCatV1.02B3,2013-10-07 16:17:00,
2013-10-07 11:22:00,64.0,51.6,30.09,NNW,347,0.0,2.0,64,0.00,,,0.00,WeatherCatV1.02B3,2013-10-07 16:22:00,
2013-10-07 11:27:00,64.2,52.2,30.08,NW,310,0.0,4.0,65,0.00,,,0.00,WeatherCatV1.02B3,2013-10-07 16:27:00,
2013-10-07 11:32:00,64.4,52.4,30.08,NNW,336,3.0,5.0,65,0.00,,,0.00,WeatherCatV1.02B3,2013-10-07 16:32:00,
2013-10-07 11:37:00,64.6,53.0,30.09,North,355,0.0,6.0,66,0.00,,,0.00,WeatherCatV1.02B3,2013-10-07 16:37:00,
2013-10-07 11:42:00,64.7,53.1,30.08,NNW,333,0.0,6.0,66,0.00,,,0.00,WeatherCatV1.02B3,2013-10-07 16:42:00,
2013-10-07 11:47:00,64.9,53.3,30.08,North,355,2.0,2.0,66,0.00,,,0.00,WeatherCatV1.02B3,2013-10-07 16:47:00,
2013-10-07 11:52:00,65.3,53.6,30.08,NNW,346,0.0,5.0,66,0.00,,,0.00,WeatherCatV1.02B3,2013-10-07 16:52:00,
2013-10-07 11:57:00,65.6,53.1,30.08,NNW,336,5.0,5.0,64,0.00,,,0.00,WeatherCatV1.02B3,2013-10-07 16:57:00,
2013-10-07 12:02:00,65.9,54.2,30.08,NNW,345,0.0,0.0,66,0.00,,,0.00,WeatherCatV1.02B3,2013-10-07 17:02:00,
2013-10-07 12:07:00,66.5,55.2,30.08,NNW,344,0.0,7.0,67,0.00,,,0.00,WeatherCatV1.02B3,2013-10-07 17:07:00,
2013-10-07 12:12:00,66.8,55.1,30.08,North,355,1.0,4.0,66,0.00,,,0.00,WeatherCatV1.02B3,2013-10-07 17:12:00,
2013-10-07 12:17:00,67.3,53.8,30.08,NNW,332,0.0,6.0,62,0.00,,,0.00,WeatherCatV1.02B3,2013-10-07 17:17:00,
2013-10-07 12:22:00,67.7,53.8,30.08,SW,229,0.0,1.0,61,0.00,,,0.00,WeatherCatV1.02B3,2013-10-07 17:22:00,
2013-10-07 12:27:00,68.1,54.6,30.07,NNW,344,0.0,3.0,62,0.00,,,0.00,WeatherCatV1.02B3,2013-10-07 17:27:00,
2013-10-07 12:32:00,68.6,54.1,30.07,North,10,1.0,5.0,60,0.00,,,0.00,WeatherCatV1.02B3,2013-10-07 17:32:00,
2013-10-07 12:37:00,68.6,54.6,30.07,NNW,348,0.0,3.0,61,0.00,,,0.00,WeatherCatV1.02B3,2013-10-07 17:37:00,
2013-10-07 12:42:00,68.1,54.1,30.07,NNW,333,0.0,3.0,61,0.00,,,0.00,WeatherCatV1.02B3,2013-10-07 17:42:00,
2013-10-07 12:47:00,68.1,54.6,30.07,NNW,342,0.0,5.0,62,0.00,,,0.00,WeatherCatV1.02B3,2013-10-07 17:47:00,
2013-10-07 12:52:00,68.2,53.8,30.06,West,265,1.0,2.0,60,0.00,,,0.00,WeatherCatV1.02B3,2013-10-07 17:52:00,
2013-10-07 12:57:00,67.8,52.5,30.06,WSW,240,2.0,3.0,58,0.00,,,0.00,WeatherCatV1.02B3,2013-10-07 17:57:00,
2013-10-07 13:02:00,68.0,53.6,30.05,WSW,252,0.0,4.0,60,0.00,,,0.00,WeatherCatV1.02B3,2013-10-07 18:02:00,
2013-10-07 13:07:00,68.3,54.3,30.05,NNW,340,3.0,3.0,61,0.00,,,0.00,WeatherCatV1.02B3,2013-10-07 18:07:00,
2013-10-07 13:12:00,68.5,54.1,30.05,NE,46,4.0,5.0,60,0.00,,,0.00,WeatherCatV1.02B3,2013-10-07 18:12:00,
2013-10-07 13:17:00,68.6,54.1,30.05,NNW,344,0.0,1.0,60,0.00,,,0.00,WeatherCatV1.02B3,2013-10-07 18:17:00,
2013-10-07 13:22:00,68.9,55.3,30.05,NNW,348,2.0,6.0,62,0.00,,,0.00,WeatherCatV1.02B3,2013-10-07 18:22:00,
2013-10-07 13:27:00,69.0,55.0,30.05,NW,314,0.0,5.0,61,0.00,,,0.00,WeatherCatV1.02B3,2013-10-07 18:27:00,
2013-10-07 13:32:00,69.3,54.8,30.05,North,355,1.0,4.0,60,0.00,,,0.00,WeatherCatV1.02B3,2013-10-07 18:32:00,
2013-10-07 13:37:00,69.6,54.2,30.04,NW,326,2.0,4.0,58,0.00,,,0.00,WeatherCatV1.02B3,2013-10-07 18:37:00,
2013-10-07 13:42:00,69.8,55.3,30.04,NW,319,0.0,4.0,60,0.00,,,0.00,WeatherCatV1.02B3,2013-10-07 18:42:00,
2013-10-07 13:47:00,69.8,53.9,30.04,WNW,290,0.0,2.0,57,0.00,,,0.00,WeatherCatV1.02B3,2013-10-07 18:47:00,
2013-10-07 13:52:00,69.9,54.4,30.03,NW,306,0.0,5.0,58,0.00,,,0.00,WeatherCatV1.02B3,2013-10-07 18:52:00,
2013-10-07 13:57:00,70.5,54.5,30.03,North,355,0.0,5.0,57,0.00,,,0.00,WeatherCatV1.02B3,2013-10-07 18:57:00,
2013-10-07 14:02:00,71.0,55.5,30.03,North,355,3.0,7.0,58,0.00,,,0.00,WeatherCatV1.02B3,2013-10-07 19:02:00,
2013-10-07 14:07:00,71.3,56.2,30.03,North,5,0.0,4.0,59,0.00,,,0.00,WeatherCatV1.02B3,2013-10-07 19:07:00,
2013-10-07 14:12:00,71.6,55.1,30.03,West,268,4.0,6.0,56,0.00,,,0.00,WeatherCatV1.02B3,2013-10-07 19:12:00,
2013-10-07 14:17:00,71.1,55.6,30.03,NW,323,0.0,6.0,58,0.00,,,0.00,WeatherCatV1.02B3,2013-10-07 19:17:00,
2013-10-07 14:22:00,71.0,54.5,30.03,NW,326,6.0,6.0,56,0.00,,,0.00,WeatherCatV1.02B3,2013-10-07 19:22:00,
2013-10-07 14:27:00,70.6,54.1,30.03,WNW,295,0.0,4.0,56,0.00,,,0.00,WeatherCatV1.02B3,2013-10-07 19:27:00,
2013-10-07 14:32:00,70.6,54.6,30.03,NW,325,2.0,4.0,57,0.00,,,0.00,WeatherCatV1.02B3,2013-10-07 19:32:00,
2013-10-07 14:37:00,70.8,54.3,30.03,WSW,254,3.0,3.0,56,0.00,,,0.00,WeatherCatV1.02B3,2013-10-07 19:37:00,
2013-10-07 14:42:00,70.8,55.3,30.03,WNW,303,2.0,7.0,58,0.00,,,0.00,WeatherCatV1.02B3,2013-10-07 19:42:00,
2013-10-07 14:47:00,70.8,54.3,30.03,WSW,250,0.0,4.0,56,0.00,,,0.00,WeatherCatV1.02B3,2013-10-07 19:47:00,
2013-10-07 14:52:00,70.6,54.6,30.03,North,5,3.0,4.0,57,0.00,,,0.00,WeatherCatV1.02B3,2013-10-07 19:52:00,
2013-10-07 14:57:00,70.5,54.5,30.03,NW,321,0.0,4.0,57,0.00,,,0.00,WeatherCatV1.02B3,2013-10-07 19:57:00,
2013-10-07 15:02:00,70.5,54.0,30.03,WSW,244,0.0,5.0,56,0.00,,,0.00,WeatherCatV1.02B3,2013-10-07 20:02:00,
2013-10-07 15:07:00,70.7,53.7,30.03,North,355,4.0,4.0,55,0.00,,,0.00,WeatherCatV1.02B3,2013-10-07 20:07:00,
2013-10-07 15:12:00,70.6,54.1,30.03,NNW,340,1.0,9.0,56,0.00,,,0.00,WeatherCatV1.02B3,2013-10-07 20:12:00,
2013-10-07 15:17:00,70.6,54.1,30.03,NNW,335,0.0,3.0,56,0.00,,,0.00,WeatherCatV1.02B3,2013-10-07 20:17:00,
2013-10-07 15:22:00,71.2,55.7,30.03,NNE,22,4.0,4.0,58,0.00,,,0.00,WeatherCatV1.02B3,2013-10-07 20:22:00,
2013-10-07 15:27:00,71.5,54.5,30.03,NW,317,1.0,3.0,55,0.00,,,0.00,WeatherCatV1.02B3,2013-10-07 20:27:00,
2013-10-07 15:32:00,71.5,54.5,30.02,NNE,14,4.0,7.0,55,0.00,,,0.00,WeatherCatV1.02B3,2013-10-07 20:32:00,
2013-10-07 15:37:00,71.2,54.7,30.02,WSW,252,0.0,0.0,56,0.00,,,0.00,WeatherCatV1.02B3,2013-10-07 20:37:00,
2013-10-07 15:42:00,71.1,55.1,30.03,North,355,1.0,9.0,57,0.00,,,0.00,WeatherCatV1.02B3,2013-10-07 20:42:00,
2013-10-07 15:47:00,71.1,55.6,30.02,NNW,329,0.0,1.0,58,0.00,,,0.00,WeatherCatV1.02B3,2013-10-07 20:47:00,
2013-10-07 15:52:00,71.1,54.6,30.02,SW,224,2.0,3.0,56,0.00,,,0.00,WeatherCatV1.02B3,2013-10-07 20:52:00,
2013-10-07 15:57:00,71.0,55.0,30.02,NNW,329,2.0,4.0,57,0.00,,,0.00,WeatherCatV1.02B3,2013-10-07 20:57:00,
2013-10-07 16:02:00,71.2,54.7,30.02,North,355,1.0,4.0,56,0.00,,,0.00,WeatherCatV1.02B3,2013-10-07 21:02:00,
2013-10-07 16:07:00,71.4,55.4,30.02,NW,321,0.0,4.0,57,0.00,,,0.00,WeatherCatV1.02B3,2013-10-07 21:07:00,
2013-10-07 16:12:00,71.9,55.3,30.02,WSW,245,2.0,5.0,56,0.00,,,0.00,WeatherCatV1.02B3,2013-10-07 21:12:00,
2013-10-07 16:17:00,71.9,55.3,30.02,NNE,30,9.0,9.0,56,0.00,,,0.00,WeatherCatV1.02B3,2013-10-07 21:17:00,
2013-10-07 16:22:00,72.0,55.4,30.02,North,0,1.0,6.0,56,0.00,,,0.00,WeatherCatV1.02B3,2013-10-07 21:22:00,
2013-10-07 16:27:00,72.1,55.0,30.02,NNW,347,0.0,4.0,55,0.00,,,0.00,WeatherCatV1.02B3,2013-10-07 21:27:00,
2013-10-07 16:32:00,71.9,54.8,30.02,NNW,336,0.0,8.0,55,0.00,,,0.00,WeatherCatV1.02B3,2013-10-07 21:32:00,
2013-10-07 16:37:00,71.5,54.5,30.02,North,355,7.0,8.0,55,0.00,,,0.00,WeatherCatV1.02B3,2013-10-07 21:37:00,
2013-10-07 16:42:00,71.3,55.3,30.02,NW,322,1.0,9.0,57,0.00,,,0.00,WeatherCatV1.02B3,2013-10-07 21:42:00,
2013-10-07 16:47:00,71.1,53.6,30.02,WSW,248,0.0,3.0,54,0.00,,,0.00,WeatherCatV1.02B3,2013-10-07 21:47:00,
2013-10-07 16:52:00,71.0,54.5,30.02,NW,319,0.0,5.0,56,0.00,,,0.00,WeatherCatV1.02B3,2013-10-07 21:52:00,
2013-10-07 16:57:00,70.9,53.9,30.02,SW,214,5.0,6.0,55,0.00,,,0.00,WeatherCatV1.02B3,2013-10-07 21:57:00,
2013-10-07 17:02:00,70.7,53.7,30.02,NW,312,1.0,4.0,55,0.00,,,0.00,WeatherCatV1.02B3,2013-10-07 22:02:00,
2013-10-07 17:07:00,70.3,53.8,30.02,WSW,258,0.0,2.0,56,0.00,,,0.00,WeatherCatV1.02B3,2013-10-07 22:07:00,
2013-10-07 17:12:00,70.2,53.8,30.02,NNW,333,0.0,4.0,56,0.00,,,0.00,WeatherCatV1.02B3,2013-10-07 22:12:00,
2013-10-07 17:17:00,70.1,53.7,30.02,WNW,289,0.0,3.0,56,0.00,,,0.00,WeatherCatV1.02B3,2013-10-07 22:17:00,
2013-10-07 17:22:00,70.0,54.5,30.02,WNW,301,0.0,2.0,58,0.00,,,0.00,WeatherCatV1.02B3,2013-10-07 22:22:00,
2013-10-07 17:27:00,69.8,53.9,30.02,WNW,302,0.0,4.0,57,0.00,,,0.00,WeatherCatV1.02B3,2013-10-07 22:27:00,
2013-10-07 17:32:00,69.7,54.2,30.03,NNW,330,0.0,4.0,58,0.00,,,0.00,WeatherCatV1.02B3,2013-10-07 22:32:00,
2013-10-07 17:37:00,69.6,54.2,30.03,NW,311,0.0,2.0,58,0.00,,,0.00,WeatherCatV1.02B3,2013-10-07 22:37:00,
2013-10-07 17:42:00,69.4,53.5,30.03,NNW,336,2.0,4.0,57,0.00,,,0.00,WeatherCatV1.02B3,2013-10-07 22:42:00,
2013-10-07 17:47:00,69.2,54.3,30.03,NNE,21,0.0,1.0,59,0.00,,,0.00,WeatherCatV1.02B3,2013-10-07 22:47:00,
2013-10-07 17:52:00,69.0,54.1,30.03,NW,311,0.0,1.0,59,0.00,,,0.00,WeatherCatV1.02B3,2013-10-07 22:52:00,
2013-10-07 17:57:00,68.8,54.3,30.03,WSW,239,0.0,5.0,60,0.00,,,0.00,WeatherCatV1.02B3,2013-10-07 22:57:00,
2013-10-07 18:02:00,68.6,53.7,30.03,West,275,4.0,5.0,59,0.00,,,0.00,WeatherCatV1.02B3,2013-10-07 23:02:00,
2013-10-07 18:07:00,68.5,54.1,30.03,NW,309,0.0,2.0,60,0.00,,,0.00,WeatherCatV1.02B3,2013-10-07 23:07:00,
2013-10-07 18:12:00,68.3,54.3,30.03,WNW,297,0.0,2.0,61,0.00,,,0.00,WeatherCatV1.02B3,2013-10-07 23:12:00,
2013-10-07 18:17:00,68.1,54.1,30.03,NW,304,0.0,4.0,61,0.00,,,0.00,WeatherCatV1.02B3,2013-10-07 23:17:00,
2013-10-07 18:22:00,67.9,53.9,30.03,NNW,348,0.0,3.0,61,0.00,,,0.00,WeatherCatV1.02B3,2013-10-07 23:22:00,
2013-10-07 18:27:00,67.7,54.2,30.03,WNW,302,0.0,4.0,62,0.00,,,0.00,WeatherCatV1.02B3,2013-10-07 23:27:00,
2013-10-07 18:32:00,67.5,54.5,30.04,WNW,300,0.0,3.0,63,0.00,,,0.00,WeatherCatV1.02B3,2013-10-07 23:32:00,
2013-10-07 18:37:00,67.4,54.4,30.04,NW,320,3.0,3.0,63,0.00,,,0.00,WeatherCatV1.02B3,2013-10-07 23:37:00,
2013-10-07 18:42:00,67.2,54.6,30.04,WSW,254,0.0,4.0,64,0.00,,,0.00,WeatherCatV1.02B3,2013-10-07 23:42:00,
2013-10-07 18:47:00,67.1,54.5,30.05,NE,48,2.0,5.0,64,0.00,,,0.00,WeatherCatV1.02B3,2013-10-07 23:47:00,
2013-10-07 18:52:00,67.0,54.4,30.05,NW,305,0.0,1.0,64,0.00,,,0.00,WeatherCatV1.02B3,2013-10-07 23:52:00,
2013-10-07 18:57:00,66.8,54.6,30.05,NNW,340,0.0,9.0,65,0.00,,,0.00,WeatherCatV1.02B3,2013-10-07 23:57:00,
2013-10-07 19:02:00,66.7,54.6,30.05,NW,319,0.0,4.0,65,0.00,,,0.00,WeatherCatV1.02B3,2013-10-08 00:02:00,
2013-10-07 19:07:00,66.5,54.4,30.05,NW,316,0.0,2.0,65,0.00,,,0.00,WeatherCatV1.02B3,2013-10-08 00:07:00,
2013-10-07 19:12:00,66.4,55.1,30.05,North,0,0.0,1.0,67,0.00,,,0.00,WeatherCatV1.02B3,2013-10-08 00:12:00,
2013-10-07 19:17:00,66.2,54.9,30.05,NW,312,0.0,0.0,67,0.00,,,0.00,WeatherCatV1.02B3,2013-10-08 00:17:00,
2013-10-07 19:22:00,66.1,54.8,30.05,NNE,15,6.0,6.0,67,0.00,,,0.00,WeatherCatV1.02B3,2013-10-08 00:22:00,
2013-10-07 19:27:00,66.0,55.1,30.05,NNW,346,0.0,7.0,68,0.00,,,0.00,WeatherCatV1.02B3,2013-10-08 00:27:00,
2013-10-07 19:32:00,65.8,54.5,30.05,NNW,328,0.0,1.0,67,0.00,,,0.00,WeatherCatV1.02B3,2013-10-08 00:32:00,
2013-10-07 19:37:00,65.7,54.8,30.06,North,355,2.0,4.0,68,0.00,,,0.00,WeatherCatV1.02B3,2013-10-08 00:37:00,
2013-10-07 19:42:00,65.6,55.1,30.06,NNW,328,0.0,3.0,69,0.00,,,0.00,WeatherCatV1.02B3,2013-10-08 00:42:00,
2013-10-07 19:47:00,65.4,55.0,30.06,NW,306,0.0,2.0,69,0.00,,,0.00,WeatherCatV1.02B3,2013-10-08 00:47:00,
2013-10-07 19:52:00,65.3,55.3,30.06,North,5,0.0,4.0,70,0.00,,,0.00,WeatherCatV1.02B3,2013-10-08 00:52:00,
2013-10-07 19:57:00,65.2,54.8,30.06,North,351,0.0,2.0,69,0.00,,,0.00,WeatherCatV1.02B3,2013-10-08 00:57:00,
2013-10-07 20:02:00,65.1,55.1,30.06,NW,313,4.0,5.0,70,0.00,,,0.00,WeatherCatV1.02B3,2013-10-08 01:02:00,
2013-10-07 20:07:00,65.0,55.0,30.07,NNW,328,4.0,5.0,70,0.00,,,0.00,WeatherCatV1.02B3,2013-10-08 01:07:00,
2013-10-07 20:12:00,65.0,55.0,30.07,NNE,17,0.0,1.0,70,0.00,,,0.00,WeatherCatV1.02B3,2013-10-08 01:12:00,
2013-10-07 20:17:00,64.9,54.9,30.07,North,355,0.0,3.0,70,0.00,,,0.00,WeatherCatV1.02B3,2013-10-08 01:17:00,
2013-10-07 20:22:00,64.9,55.3,30.07,NW,315,0.0,1.0,71,0.00,,,0.00,WeatherCatV1.02B3,2013-10-08 01:22:00,
2013-10-07 20:27:00,64.8,55.6,30.08,NE,46,0.0,3.0,72,0.00,,,0.00,WeatherCatV1.02B3,2013-10-08 01:27:00,
2013-10-07 20:32:00,64.7,55.1,30.08,NW,310,0.0,2.0,71,0.00,,,0.00,WeatherCatV1.02B3,2013-10-08 01:32:00,
2013-10-07 20:37:00,64.6,55.0,30.08,NNW,342,2.0,7.0,71,0.00,,,0.00,WeatherCatV1.02B3,2013-10-08 01:37:00,
2013-10-07 20:42:00,64.5,54.9,30.08,NNW,327,0.0,5.0,71,0.00,,,0.00,WeatherCatV1.02B3,2013-10-08 01:42:00,
2013-10-07 20:47:00,64.5,54.9,30.08,NW,321,1.0,4.0,71,0.00,,,0.00,WeatherCatV1.02B3,2013-10-08 01:47:00,
2013-10-07 20:52:00,64.4,55.2,30.08,North,0,0.0,5.0,72,0.00,,,0.00,WeatherCatV1.02B3,2013-10-08 01:52:00,
2013-10-07 20:57:00,64.3,55.1,30.08,NW,324,0.0,1.0,72,0.00,,,0.00,WeatherCatV1.02B3,2013-10-08 01:57:00,
2013-10-07 21:02:00,64.1,54.9,30.08,NNW,327,0.0,3.0,72,0.00,,,0.00,WeatherCatV1.02B3,2013-10-08 02:02:00,
2013-10-07 21:07:00,64.0,55.2,30.08,NW,317,0.0,1.0,73,0.00,,,0.00,WeatherCatV1.02B3,2013-10-08 02:07:00,
2013-10-07 21:12:00,63.9,55.1,30.08,NNW,334,0.0,2.0,73,0.00,,,0.00,WeatherCatV1.02B3,2013-10-08 02:12:00,
2013-10-07 21:17:00,63.8,55.0,30.09,NW,316,0.0,3.0,73,0.00,,,0.00,WeatherCatV1.02B3,2013-10-08 02:17:00,
2013-10-07 21:22:00,63.7,55.3,30.09,NW,325,2.0,5.0,74,0.00,,,0.00,WeatherCatV1.02B3,2013-10-08 02:22:00,
2013-10-07 21:27:00,63.6,55.2,30.09,North,355,0.0,1.0,74,0.00,,,0.00,WeatherCatV1.02B3,2013-10-08 02:27:00,
2013-10-07 21:32:00,63.5,55.1,30.09,ENE,57,5.0,5.0,74,0.00,,,0.00,WeatherCatV1.02B3,2013-10-08 02:32:00,
2013-10-07 21:37:00,63.4,55.0,30.10,NNW,340,1.0,2.0,74,0.00,,,0.00,WeatherCatV1.02B3,2013-10-08 02:37:00,
2013-10-07 21:42:00,63.4,55.3,30.09,North,355,0.0,3.0,75,0.00,,,0.00,WeatherCatV1.02B3,2013-10-08 02:42:00,
2013-10-07 21:47:00,63.4,55.3,30.10,North,355,0.0,3.0,75,0.00,,,0.00,WeatherCatV1.02B3,2013-10-08 02:47:00,
2013-10-07 21:52:00,63.3,55.2,30.10,North,355,0.0,9.0,75,0.00,,,0.00,WeatherCatV1.02B3,2013-10-08 02:52:00,
2013-10-07 21:57:00,63.3,55.2,30.10,NNW,340,1.0,2.0,75,0.00,,,0.00,WeatherCatV1.02B3,2013-10-08 02:57:00,
2013-10-07 22:02:00,63.3,55.2,30.10,NE,36,0.0,7.0,75,0.00,,,0.00,WeatherCatV1.02B3,2013-10-08 03:02:00,
2013-10-07 22:07:00,63.2,55.1,30.10,NNW,328,0.0,10.0,75,0.00,,,0.00,WeatherCatV1.02B3,2013-10-08 03:07:00,
2013-10-07 22:12:00,63.2,55.1,30.10,NW,316,0.0,4.0,75,0.00,,,0.00,WeatherCatV1.02B3,2013-10-08 03:12:00,
2013-10-07 22:17:00,63.2,55.5,30.10,North,5,0.0,7.0,76,0.00,,,0.00,WeatherCatV1.02B3,2013-10-08 03:17:00,
2013-10-07 22:22:00,63.1,55.8,30.10,North,11,0.0,0.0,77,0.00,,,0.00,WeatherCatV1.02B3,2013-10-08 03:22:00,
2013-10-07 22:27:00,63.0,55.7,30.10,NE,34,2.0,3.0,77,0.00,,,0.00,WeatherCatV1.02B3,2013-10-08 03:27:00,
2013-10-07 22:32:00,62.9,55.6,30.10,NNE,18,0.0,1.0,77,0.00,,,0.00,WeatherCatV1.02B3,2013-10-08 03:32:00,
2013-10-07 22:37:00,62.8,55.5,30.10,North,5,1.0,1.0,77,0.00,,,0.00,WeatherCatV1.02B3,2013-10-08 03:37:00,
2013-10-07 22:42:00,62.7,55.7,30.10,North,11,0.0,1.0,78,0.00,,,0.00,WeatherCatV1.02B3,2013-10-08 03:42:00,
2013-10-07 22:47:00,62.6,55.6,30.10,NNW,344,1.0,5.0,78,0.00,,,0.00,WeatherCatV1.02B3,2013-10-08 03:47:00,
2013-10-07 22:52:00,62.5,55.9,30.10,North,355,0.0,0.0,79,0.00,,,0.00,WeatherCatV1.02B3,2013-10-08 03:52:00,
2013-10-07 22:57:00,62.5,55.9,30.10,North,0,0.0,1.0,79,0.00,,,0.00,WeatherCatV1.02B3,2013-10-08 03:57:00,
2013-10-07 23:01:00,62.4,55.8,30.10,North,0,1.0,1.0,79,0.00,,,0.00,WeatherCatV1.02B3,2013-10-08 04:01:00,
2013-10-07 23:06:00,62.2,55.6,30.10,North,351,1.0,5.0,79,0.00,,,0.00,WeatherCatV1.02B3,2013-10-08 04:06:00,
2013-10-07 23:11:00,62.0,55.4,30.10,North,350,0.0,2.0,79,0.00,,,0.00,WeatherCatV1.02B3,2013-10-08 04:11:00,
2013-10-07 23:16:00,61.9,55.0,30.10,NNW,333,0.0,5.0,78,0.00,,,0.00,WeatherCatV1.02B3,2013-10-08 04:16:00,
2013-10-07 23:21:00,61.8,54.9,30.10,North,355,0.0,2.0,78,0.00,,,0.00,WeatherCatV1.02B3,2013-10-08 04:21:00,
2013-10-07 23:26:00,61.7,54.8,30.10,NE,44,0.0,0.0,78,0.00,,,0.00,WeatherCatV1.02B3,2013-10-08 04:26:00,
2013-10-07 23:31:00,61.6,54.7,30.10,NNE,17,2.0,4.0,78,0.00,,,0.00,WeatherCatV1.02B3,2013-10-08 04:31:00,
2013-10-07 23:36:00,61.4,54.5,30.09,NE,44,0.0,2.0,78,0.00,,,0.00,WeatherCatV1.02B3,2013-10-08 04:36:00,
2013-10-07 23:41:00,61.3,54.4,30.09,NNE,19,0.0,1.0,78,0.00,,,0.00,WeatherCatV1.02B3,2013-10-08 04:41:00,
2013-10-07 23:46:00,61.2,54.6,30.09,NNE,30,0.0,0.0,79,0.00,,,0.00,WeatherCatV1.02B3,2013-10-08 04:46:00,
2013-10-07 23:51:00,61.1,54.5,30.09,North,355,0.0,1.0,79,0.00,,,0.00,WeatherCatV1.02B3,2013-10-08 04:51:00,
2013-10-07 23:56:00,60.9,54.3,30.09,North,0,0.0,2.0,79,0.00,,,0.00,WeatherCatV1.02B3,2013-10-08 04:56:00,